Location: Newark
(47.5833°N, 8.1500°E)
Time: 18:38:09
(UTC+00:00)

Transit 2A - Pass Details

Date: 03 November 2020
Orbit: 595 x 964 km, 66.7° (Epoch: 01 December)

Event Time Altitude Azimuth Distance (km) Brightness Sun altitude
Rises 01:37:49 0° 268° (W) 3,646 - -45.6°
Reaches altitude 10° 01:41:09 10° 284° (WNW) 2,686 - -45.2°
Maximum altitude 01:45:42 20° 331° (NNW) 1,999 - -44.5°
Exits shadow 01:49:46 11° 15° (NNE) 2,498 9.0 -43.9°
Drops below altitude 10° 01:50:07 10° 18° (NNE) 2,582 9.1 -43.9°
Sets 01:53:16 0° 35° (NE) 3,463 10.1 -43.4°
